Location: Eferding
(48.3167°N, 14.0167°E)
Time: 07:25:01
(UTC+00:00)

Cosmos 1842 Rocket - Pass Details

Date: 12 November 2019
Orbit: 604 x 635 km, 82.5° (Epoch: 14 December)

Event Time Altitude Azimuth Distance (km) Brightness Sun altitude
Rises 16:06:00 0° 175° (S) 2,919 7.2 -6.4°
Reaches altitude 10° 16:08:16 10° 170° (S) 2,016 6.3 -6.8°
Maximum altitude 16:12:37 53° 94° (E) 783 3.8 -7.5°
Drops below altitude 10° 16:17:00 10° 18° (NNE) 2,029 5.9 -8.2°
Sets 16:19:17 0° 14° (NNE) 2,939 6.7 -8.5°
